Terminal Aerodrome Forecast
Issued by NWS

Home | Current Version | Previous Version | Text Only | Print | Product List | Glossary On
Versions: 1 2 3 4 5 6 7 8 9 10 11 12 13 14 15 16 17 18 19 20 21 22 23 24 25 26 27 28 29 30 31 32 33 34 35 36 37 38 39 40 41 42 43
000
FTAK31 PANC 261141
TAFAVD
TAF
PAVD 261141Z 2612/2712 VRB04KT P6SM -SHRA BKN060
      TEMPO 2612/2614 BKN035
     FM261400 VRB03KT P6SM -SHRA BKN035
     FM270000 24006KT P6SM -SHRA OVC045
      AMD LTD TO CLD VIS AND WIND=

USA.gov is the U.S. government's official web portal to all federal, state and local government web resources and services.